This demonstration page uses our WeatherBlox Daily Observations layout. Learn more.

Left ArrowRight Arrow

39.29038, -76.61219

Hourly Observations for November 13, 2020

Temp ( °F °C ) Dew Point ( °F °C ) Humidity (%) Winds ( mph kmh ) Pressure ( in mb ) Visibility ( mi km ) Precip ( " mm )
12:54 am 00:54 Cloudy 50 10 42 5.6 74 74 ENE 6 9 30.04 1017 10 16 0.00 0.00
1:54 am 01:54 Cloudy 50 10 42 5.6 74 74 NE 6 9 30.04 1017 10 16 0.00 0.00
2:54 am 02:54 Cloudy 50 10 43 6.1 77 77 N 3 6 30.04 1017 10 16 0.00 0.00
3:24 am 03:24 Cloudy 49 9.4 43 6.1 80 80 Calm 30.03 1017 10 16 0.00 0.00
3:54 am 03:54 Cloudy 48 8.9 44 6.7 86 86 WNW 3 6 30.04 1017 10 16 0.00 0.00
4:54 am 04:54 Cloudy with Light Rain 48 8.9 44 6.7 86 86 WNW 5 7 30.03 1017 2 3 0.01 0.25
5:06 am 05:06 Cloudy with Light Rain 47 8.3 44 6.7 90 90 NW 3 6 30.03 1017 3 4 0.00 0.00
5:21 am 05:21 Cloudy with Mist and Fog 47 8.3 45 7.2 93 93 NW 3 6 30.03 1017 4 6 0.00 0.00
5:35 am 05:35 Cloudy with Mist and Fog 48 8.9 45 7.2 89 89 Calm 30.03 1017 5 8 0.00 0.00
5:54 am 05:54 Cloudy with Mist and Fog 48 8.9 45 7.2 89 89 Calm 30.02 1017 6 10 0.00 0.00
6:21 am 06:21 Cloudy with Mist and Fog 48 8.9 45 7.2 89 89 Calm 30.01 1016 6 10 0.00 0.00
6:33 am 06:33 Cloudy with Mist and Fog 48 8.9 45 7.2 89 89 Calm 30.01 1016 6 10 0.00 0.00
6:54 am 06:54 Cloudy with Mist and Fog 48 8.9 45 7.2 89 89 WNW 5 7 30.01 1016 4 6 0.00 0.00
7:28 am 07:28 Cloudy with Mist and Fog 49 9.4 45 7.2 86 86 Calm 30.02 1017 5 8 0.00 0.00
7:54 am 07:54 Cloudy with Mist and Fog 49 9.4 45 7.2 86 86 Calm 30.02 1017 5 8 0.00 0.00
8:21 am 08:21 Cloudy with Mist and Fog 50 10 46 7.8 86 86 WNW 3 6 30.02 1017 5 8 0.00 0.00
8:54 am 08:54 Cloudy with Mist and Fog 50 10 46 7.8 86 86 NW 6 9 30.01 1016 5 8 0.00 0.00
9:47 am 09:47 Mostly Cloudy 51 10.6 46 7.8 83 83 NNW 3 6 30.02 1017 7 11 0.00 0.00
9:54 am 09:54 Mostly Cloudy 51 10.6 46 7.8 83 83 Calm 30.01 1016 7 11 0.00 0.00
10:54 am 10:54 Mostly Cloudy 53 11.7 46 7.8 77 77 WNW 3 6 30.01 1016 10 16 0.00 0.00
11:54 am 11:54 Mostly Cloudy 59 15 47 8.3 64 64 WNW 7 11 29.98 1015 10 16 0.00 0.00
12:54 pm 12:54 Mostly Cloudy 60 15.6 44 6.7 56 56 NNW 6 9 29.96 1015 10 16 0.00 0.00
1:54 pm 13:54 Partly Cloudy 61 16.1 43 6.1 52 52 WNW 9 15 29.96 1015 10 16 0.00 0.00
2:54 pm 14:54 Mostly Sunny 61 16.1 41 5 48 48 WNW 9 15 29.95 1014 10 16 0.00 0.00
3:54 pm 15:54 Mostly Sunny 60 15.6 41 5 50 50 WNW 10 17 29.96 1015 10 16 0.00 0.00
4:54 pm 16:54 Mostly Clear 57 13.9 39 3.9 51 51 WNW 9 15 29.97 1015 10 16 0.00 0.00
5:54 pm 17:54 Mostly Clear 55 12.8 39 3.9 55 55 SW 5 7 30.00 1016 10 16 0.00 0.00
6:54 pm 18:54 Mostly Clear 53 11.7 40 4.4 61 61 Calm 30.03 1017 10 16 0.00 0.00
7:54 pm 19:54 Clear 52 11.1 40 4.4 64 64 Calm 30.05 1018 10 16 0.00 0.00
8:54 pm 20:54 Clear 49 9.4 37 2.8 64 64 WNW 7 11 30.07 1018 10 16 0.00 0.00
9:54 pm 21:54 Mostly Clear 48 8.9 35 1.7 61 61 W 6 9 30.09 1019 10 16 0.00 0.00
10:54 pm 22:54 Mostly Clear 49 9.4 35 1.7 59 59 Calm 30.10 1019 10 16 0.00 0.00
11:54 pm 23:54 Clear 41 5 36 2.2 82 82 W 7 11 30.10 1019 10 16 0.00 0.00

Powered by AerisWeather